Terminal Aerodrome Forecast
Issued by NWS Twin Cities, MN

Home | Current Version | Previous Version | Graphics & Text | Print | Product List | Glossary On
Versions: 1 2 3 4 5 6 7 8 9 10 11 12 13 14 15 16 17 18
862
FTUS43 KMPX 070331 AAA
TAFSTC
TAF AMD
KSTC 070331Z 0704/0724 25018G28KT 3SM -SN OVC019
     FM070900 27020G28KT P6SM OVC025 PROB30 0721/0724 4SM -SN
      OVC015=

USA.gov is the U.S. government's official web portal to all federal, state and local government web resources and services.